Wind_Speed
47 49 49 51 52 52 53 54 54 55 57 58 60 61 62 62 63 63 63 64 64 64 64 64 64 63 63 63 63 64 64 65 64 63 65 65 66 66 65 64 61 58 54
49 51 52 54 55 56 57 57 58 59 59 61 62 62 63 63 63 62 62 62 63 63 63 62 62 62 62 62 63 63 63 63 63 62 60 60 59 58 56 52 49 46 44
54 55 57 58 59 59 60 61 61 62 61 62 62 62 63 62 62 61 61 61 61 61 60 60 60 60 61 61 62 62 62 61 60 58 55 53 51 48 44 41 39 37 36
57 59 61 61 62 63 63 63 63 62 61 61 61 61 61 60 60 61 60 60 59 59 58 58 58 59 60 60 60 59 58 56 55 53 49 45 40 38 36 33 32 32 32
60 62 62 63 63 63 62 62 61 60 60 60 60 59 59 58 58 58 57 56 56 56 57 58 58 58 58 57 56 54 53 51 47 43 38 34 32 31 30 30 29 29 30
62 62 62 61 61 60 59 59 59 58 58 57 57 57 57 56 55 55 55 56 56 56 56 56 56 55 54 53 51 49 46 42 37 32 28 27 27 28 28 28 28 27 27
61 60 58 58 57 57 56 56 56 55 55 54 54 54 54 53 53 54 54 54 54 53 52 51 50 50 49 46 43 40 36 32 27 23 22 24 25 26 26 26 27 27 26
57 57 56 55 55 54 54 53 52 52 51 51 51 51 51 51 52 51 51 51 50 49 48 46 44 42 39 36 32 29 26 23 21 21 22 23 24 24 25 26 26 25 25
54 53 52 52 51 50 50 49 48 48 47 47 47 48 48 48 48 47 47 46 46 44 42 40 37 33 29 25 22 20 19 18 19 20 21 22 24 24 25 24 23 22 22
49 48 48 47 46 45 45 45 45 45 45 45 44 44 44 44 44 43 41 40 39 38 35 32 27 23 19 17 14 13 14 15 17 19 21 22 23 23 22 21 20 19 18
44 42 42 41 41 42 42 42 42 42 42 42 42 41 41 40 38 37 34 33 31 29 27 23 18 14 12 10 10 10 12 14 16 18 20 21 21 21 20 19 18 17 17
38 38 38 38 39 39 39 39 39 39 39 38 37 36 35 33 32 29 27 26 24 22 18 14 10 8 7 8 9 10 12 14 16 18 19 20 20 19 19 18 17 18 17
34 35 35 36 37 37 37 37 37 36 35 33 32 31 29 27 25 23 21 20 17 13 9 6 5 5 6 8 9 11 13 14 16 18 19 19 19 19 20 20 19 19 18
33 34 35 36 36 36 35 34 33 31 29 28 26 25 23 21 19 18 16 13 8 4 2 3 4 5 7 8 9 11 13 15 16 18 19 20 20 21 21 21 21 21 20
33 34 34 34 33 32 30 29 27 25 23 22 21 20 18 17 15 13 9 4 2 3 4 5 5 6 7 8 10 11 13 15 17 18 19 20 21 22 23 22 23 22 22
33 32 31 30 28 26 25 23 21 19 18 18 16 15 14 12 10 6 3 5 7 7 6 6 6 7 8 9 11 12 14 16 17 18 19 20 21 23 23 24 25 25 24
29 28 26 24 23 21 19 17 16 15 14 13 12 11 9 7 5 5 7 9 9 8 7 7 7 8 9 10 12 13 15 17 17 18 19 20 22 23 24 25 26 27 27
26 24 22 20 17 15 14 13 11 10 10 9 9 9 8 7 8 10 10 10 10 9 8 8 8 9 10 11 12 14 16 17 19 19 20 20 22 23 25 26 26 27 28
23 21 18 15 13 11 10 9 8 8 8 8 8 8 9 10 11 12 11 11 10 10 9 9 9 10 11 12 13 15 17 18 19 20 21 22 22 24 25 26 27 27 28
20 18 16 13 10 9 8 7 7 8 8 9 9 11 12 12 13 12 11 11 10 10 10 10 11 11 11 12 14 16 17 18 20 21 22 23 24 24 25 26 27 27 27
19 17 14 12 10 9 9 8 9 9 10 11 12 13 14 14 13 12 11 10 10 10 10 11 11 11 12 13 15 16 18 19 20 21 22 22 23 24 25 26 26 27 27
18 16 14 13 12 11 11 11 11 12 13 14 15 15 15 14 13 12 11 10 10 10 10 11 11 12 12 13 15 16 18 19 20 21 22 22 23 24 25 25 25 26 26
18 17 16 15 14 13 13 13 14 14 15 15 15 15 14 13 12 12 11 11 11 10 10 11 11 12 13 13 15 16 17 19 20 21 22 23 24 25 25 26 25 25 25
21 19 18 17 16 16 15 15 15 15 15 15 15 14 13 13 12 12 12 12 11 11 11 12 12 12 12 13 14 15 16 18 18 19 20 22 23 24 25 25 26 26 25
23 22 21 20 19 18 17 16 16 15 14 14 14 13 13 13 12 12 12 12 11 12 12 12 12 12 12 13 13 14 15 16 17 18 19 20 21 22 22 23 24 24 24
25 24 22 22 21 20 19 18 16 15 14 13 13 13 13 13 13 13 13 12 12 12 12 12 11 12 12 12 13 13 14 15 15 16 17 18 18 19 19 20 20 21 21
Wind_Direction
293 295 297 299 301 302 303 303 303 301 299 298 297 297 296 295 295 295 295 294 294 294 295 295 295 295 295 296 296 296 296 296 295 294 293 292 292 292 292 292 292 291 289
293 294 296 298 299 300 301 301 301 300 299 298 297 297 296 296 296 295 294 294 294 295 295 295 296 296 296 297 297 297 297 296 296 295 295 294 294 294 294 295 295 294 293
292 294 295 296 297 299 299 299 300 300 298 298 297 296 296 296 295 294 294 294 294 295 296 296 297 297 298 298 298 298 297 297 298 298 297 297 296 296 296 297 298 297 296
292 293 294 295 296 298 298 299 299 298 297 296 296 295 295 295 294 294 294 295 295 296 297 298 298 298 299 299 298 298 298 299 299 299 300 299 297 297 299 300 300 300 299
294 295 296 297 297 297 297 297 297 296 296 295 295 295 295 295 294 295 295 296 297 298 299 299 299 300 300 299 299 299 299 299 300 300 300 299 299 300 302 303 303 302 301
295 296 297 297 296 296 296 295 295 295 295 295 294 294 294 294 294 295 296 297 298 299 299 299 300 300 300 300 301 301 301 302 302 301 301 300 302 303 304 305 306 305 305
296 296 296 295 295 295 294 294 294 294 294 294 293 293 294 294 295 296 297 298 298 299 299 299 300 301 302 302 302 302 303 304 305 305 305 306 307 307 308 309 308 308 307
296 296 295 295 294 294 294 294 294 294 293 293 293 293 294 295 296 297 297 298 298 298 299 301 302 303 304 303 303 304 305 308 310 311 312 314 314 314 314 313 312 310 309
295 294 294 294 293 293 293 293 293 293 293 293 294 294 295 295 296 296 297 298 299 300 302 304 306 306 305 305 305 306 309 313 316 319 320 321 321 321 320 319 318 316 315
294 294 294 293 293 293 293 294 294 294 294 294 295 295 296 295 296 297 298 300 302 304 306 308 309 308 307 308 311 314 319 322 325 327 328 329 330 331 331 331 329 328 326
294 294 294 294 294 294 295 295 295 295 295 295 295 296 296 297 298 299 301 302 304 306 308 310 312 313 316 322 326 328 330 332 334 335 338 340 341 342 342 344 344 345 344
296 296 296 296 296 296 296 296 296 296 297 297 297 298 299 300 301 302 303 305 306 308 310 313 318 328 336 339 339 340 343 345 347 347 350 352 353 354 356 358 357 355 354
299 299 299 299 299 298 298 298 298 298 299 299 300 301 302 303 303 304 305 307 308 309 314 326 344 354 354 352 352 355 358 359 358 358 1 4 6 7 7 7 6 5 4
303 302 302 302 302 301 300 300 300 300 301 301 303 304 305 306 306 308 309 309 308 318 358 26 22 14 6 3 6 9 10 9 7 8 11 12 14 14 14 14 14 15 16
307 307 306 306 305 304 304 304 304 303 303 304 306 308 309 311 313 316 320 330 52 86 77 59 41 27 18 19 22 23 19 16 15 15 16 17 19 20 22 24 24 25 26
313 312 311 310 309 309 309 309 309 309 310 311 313 316 318 322 326 338 46 94 98 90 78 60 46 36 31 35 36 31 26 22 21 21 23 25 26 27 29 32 32 33 33
318 317 316 315 314 313 314 315 316 317 320 323 328 333 341 352 22 75 95 98 93 87 72 59 51 45 45 48 43 37 31 29 29 29 30 31 32 33 35 36 37 38 40
326 325 323 323 322 322 323 326 330 333 339 345 352 2 21 51 78 91 95 94 89 80 70 62 57 56 58 55 48 42 38 36 36 36 36 37 38 38 39 39 40 42 44
335 335 334 335 336 337 341 348 355 360 6 13 24 41 60 77 88 92 92 89 83 77 70 66 65 67 67 61 55 50 46 44 43 43 43 44 44 44 43 43 44 45 47
347 348 349 352 357 5 14 21 24 30 38 47 58 69 79 86 89 90 89 84 79 75 71 71 72 72 73 68 62 57 53 50 49 49 50 50 49 48 48 48 48 49 50
3 6 11 18 27 35 40 44 50 58 63 68 75 81 86 87 87 86 82 78 76 75 76 79 78 76 77 73 67 63 59 56 54 54 54 54 54 53 52 52 52 53 54
18 24 32 40 47 52 58 64 67 71 74 79 82 84 85 83 81 77 75 74 74 77 80 84 83 81 81 77 72 68 64 61 59 59 59 58 58 57 56 54 54 54 55
32 37 44 50 57 63 67 69 73 77 80 82 83 82 80 78 75 72 72 73 77 80 85 89 87 86 84 82 77 73 68 64 62 62 62 61 60 59 57 56 56 57 58
42 47 52 58 63 66 69 72 76 79 80 81 80 77 74 72 71 70 71 75 79 84 89 92 92 90 87 83 79 76 71 67 64 63 62 62 61 60 59 58 58 58 59
49 54 58 62 64 67 70 72 75 77 78 78 76 73 70 69 70 71 73 75 79 84 89 93 93 91 89 85 82 79 75 70 66 63 61 61 61 60 59 58 58 59 59
53 57 60 62 64 66 67 69 70 72 74 75 74 72 70 70 70 71 74 77 81 84 88 92 93 92 91 88 85 81 76 71 66 62 60 59 58 57 56 55 54 54 55
Height
5777 5773 5770 5766 5763 5759 5756 5753 5749 5746 5742 5738 5733 5728 5724 5719 5714 5709 5703 5698 5693 5687 5682 5676 5671 5665 5658 5652 5646 5640 5634 5628 5625 5620 5610 5602 5594 5586 5580 5573 5567 5561 5556
5767 5763 5759 5755 5752 5748 5744 5741 5737 5732 5728 5723 5719 5714 5708 5703 5698 5693 5687 5682 5677 5672 5666 5660 5654 5649 5642 5636 5630 5623 5617 5610 5606 5601 5594 5585 5577 5570 5564 5558 5552 5546 5541
5757 5753 5749 5744 5740 5736 5732 5727 5723 5718 5713 5708 5703 5698 5693 5688 5682 5677 5671 5666 5661 5656 5651 5645 5639 5633 5627 5621 5614 5608 5601 5594 5588 5583 5577 5570 5563 5556 5551 5546 5540 5534 5529
5746 5742 5737 5732 5728 5723 5718 5713 5708 5703 5698 5693 5688 5682 5677 5672 5667 5662 5657 5652 5647 5641 5636 5631 5625 5619 5613 5606 5600 5593 5586 5580 5573 5568 5563 5557 5551 5545 5540 5536 5531 5525 5520
5734 5729 5724 5719 5714 5709 5704 5699 5693 5688 5683 5678 5673 5667 5662 5658 5653 5648 5643 5638 5633 5628 5622 5616 5610 5605 5599 5592 5586 5579 5573 5567 5561 5556 5551 5546 5541 5536 5532 5527 5523 5518 5513
5720 5715 5710 5705 5700 5695 5690 5684 5679 5674 5669 5664 5659 5654 5649 5644 5639 5634 5630 5625 5620 5615 5609 5602 5596 5591 5585 5579 5572 5566 5561 5555 5551 5547 5542 5538 5534 5529 5525 5520 5515 5511 5506
5705 5700 5696 5691 5685 5680 5675 5670 5665 5660 5655 5650 5645 5640 5636 5631 5627 5622 5617 5612 5607 5602 5597 5591 5584 5578 5573 5567 5561 5555 5551 5546 5543 5539 5536 5532 5528 5523 5519 5514 5509 5504 5499
5690 5685 5680 5675 5671 5666 5661 5656 5651 5646 5642 5637 5633 5628 5624 5619 5615 5610 5605 5600 5595 5590 5585 5580 5574 5568 5562 5558 5553 5548 5544 5541 5537 5534 5530 5526 5522 5517 5512 5507 5502 5497 5492
5675 5671 5666 5661 5656 5652 5647 5642 5638 5634 5629 5625 5621 5616 5612 5607 5603 5598 5593 5588 5583 5579 5574 5570 5565 5559 5555 5551 5547 5544 5540 5537 5534 5530 5526 5522 5517 5512 5507 5501 5496 5492 5487
5662 5657 5652 5648 5643 5639 5634 5630 5626 5622 5617 5613 5609 5605 5600 5596 5592 5587 5583 5578 5574 5569 5565 5561 5557 5553 5549 5546 5544 5541 5538 5535 5532 5528 5523 5518 5513 5508 5502 5497 5492 5487 5482
5649 5644 5640 5636 5631 5627 5623 5618 5614 5610 5606 5602 5598 5594 5589 5585 5581 5577 5574 5570 5566 5562 5558 5555 5552 5549 5546 5544 5542 5539 5537 5533 5530 5526 5521 5516 5510 5505 5500 5494 5489 5484 5479
5638 5634 5629 5625 5620 5616 5612 5607 5603 5599 5595 5591 5587 5583 5579 5576 5572 5569 5566 5563 5559 5556 5553 5551 5549 5547 5545 5543 5541 5538 5536 5532 5528 5524 5519 5514 5509 5504 5499 5493 5488 5483 5478
5629 5624 5619 5615 5610 5605 5601 5597 5593 5589 5585 5581 5578 5574 5571 5568 5565 5562 5560 5557 5554 5552 5550 5549 5548 5546 5545 5543 5541 5538 5535 5532 5528 5524 5519 5514 5509 5504 5499 5493 5488 5483 5478
5620 5615 5610 5605 5600 5595 5591 5587 5583 5580 5576 5573 5570 5567 5565 5562 5559 5557 5554 5552 5551 5550 5549 5549 5548 5547 5545 5543 5541 5539 5536 5532 5528 5524 5519 5514 5509 5505 5499 5494 5489 5484 5479
5611 5605 5600 5595 5590 5586 5582 5579 5575 5572 5569 5567 5564 5562 5559 5557 5554 5552 5550 5550 5549 5549 5549 5549 5548 5547 5546 5544 5542 5539 5536 5533 5529 5525 5520 5516 5511 5506 5501 5496 5491 5486 5480
5602 5597 5592 5587 5583 5579 5575 5572 5569 5567 5564 5562 5559 5557 5555 5553 5551 5550 5549 5549 5550 5550 5550 5550 5550 5548 5547 5545 5543 5541 5538 5534 5531 5527 5522 5518 5514 5509 5504 5499 5494 5489 5484
5595 5589 5585 5580 5576 5573 5570 5567 5565 5563 5560 5558 5556 5554 5552 5551 5550 5549 5550 5550 5551 5552 5552 5552 5551 5550 5548 5547 5545 5543 5540 5536 5533 5529 5525 5521 5517 5513 5508 5503 5499 5494 5489
5589 5583 5579 5575 5572 5569 5566 5564 5562 5560 5559 5557 5555 5553 5552 5551 5551 5551 5552 5553 5554 5554 5554 5553 5553 5551 5550 5549 5547 5545 5542 5539 5536 5532 5528 5525 5521 5517 5513 5508 5504 5499 5495
5584 5579 5575 5571 5569 5566 5564 5563 5561 5560 5558 5557 5555 5554 5553 5553 5553 5554 5555 5556 5556 5556 5556 5555 5555 5554 5553 5552 5550 5548 5545 5543 5539 5536 5532 5529 5525 5522 5518 5514 5510 5506 5502
5581 5576 5572 5569 5567 5565 5564 5563 5562 5560 5559 5558 5557 5556 5556 5557 5557 5558 5558 5559 5559 5559 5558 5558 5557 5556 5556 5555 5553 5551 5549 5546 5543 5540 5537 5534 5531 5527 5524 5520 5517 5513 5510
5580 5576 5572 5569 5567 5566 5565 5564 5563 5562 5561 5561 5560 5560 5560 5561 5561 5562 5562 5562 5562 5561 5561 5560 5560 5560 5559 5558 5557 5555 5553 5551 5548 5545 5542 5540 5536 5533 5530 5527 5524 5521 5517
5581 5577 5574 5572 5570 5569 5568 5567 5566 5565 5565 5564 5564 5564 5565 5565 5565 5565 5565 5565 5564 5564 5564 5563 5563 5563 5563 5562 5561 5559 5558 5556 5553 5551 5548 5545 5543 5540 5537 5534 5531 5528 5525
5584 5581 5578 5575 5574 5572 5572 5571 5570 5569 5569 5569 5569 5569 5569 5569 5569 5568 5568 5567 5567 5567 5567 5567 5567 5566 5566 5566 5565 5564 5562 5561 5559 5557 5554 5552 5549 5546 5544 5541 5538 5536 5533
5589 5585 5582 5580 5579 5577 5576 5575 5574 5574 5574 5574 5573 5573 5573 5573 5572 5572 5571 5571 5570 5570 5570 5570 5570 5570 5570 5569 5569 5568 5567 5566 5564 5563 5561 5558 5556 5553 5551 5548 5546 5543 5541
5595 5591 5589 5586 5584 5583 5581 5580 5579 5579 5578 5578 5578 5577 5577 5576 5576 5575 5574 5574 5574 5574 5573 5574 5574 5574 5574 5573 5573 5572 5572 5571 5570 5568 5566 5564 5562 5560 5558 5556 5553 5551 5549
5601 5598 5595 5593 5590 5589 5587 5585 5584 5583 5583 5582 5582 5581 5581 5580 5579 5579 5578 5578 5577 5577 5577 5577 5577 5577 5577 5577 5577 5577 5576 5575 5574 5573 5572 5570 5568 5566 5564 5562 5560 5558 5556